User: anonymous   Login
Location: Hylvaty SDH
(49.9612°N, 16.4057°E)
Time: 00:50:48
(UTC+01:00)
Language:

Vanguard 2 - Orbit

View from above orbital plane
View from above orbital plane
View from above satellite
View from above satellite

Ground track
Ground track

The orbit data is extracted from the following two-line orbital elements,

1    11U 59001A   20025.55643425 +.00000213 +00000-0 +10510-3 0  9996
2    11 032.8653 235.6698 1468124 159.1559 207.5800 11.85660244257891
Epoch (UTC): 25 January 2020 13:21:15
Eccentricity: 0.1468124
inclination: 32.8653°
perigee height: 553 km
apogee height: 2938 km
right ascension of ascending node: 235.6698°
argument of perigee: 159.1559°
revolutions per day: 11.85660244
mean anomaly at epoch: 207.5800°
orbit number at epoch: 25789

The dashed part of the orbit path shows where the satellite is in the earth's shadow,  

DLR